CEB998 RPMR-RPLL

Flight info

Callsign CEB998
Flight time 1h 37m
Altitude 34000
Route LATIA4R LATIA W6 LUMVI B473 LAIYA LAIYA5R
Aircraft A320/M-SDE3FGHIRWY/LB1

Departure

Time 2026-04-20 17:04
Airport General Santos International Airport (RPMR)

Arrival

Time 2026-04-20 18:41
Airport Ninoy Aquino International Airport (RPLL)
Time Latitude Longitude Altitude Speed Heading
2026-04-20 16:33 6.05779 125.09940 514 ft 0 kts 81°
2026-04-20 16:55 6.05778 125.09933 514 ft 2 kts 82°
2026-04-20 16:55 6.05776 125.09915 514 ft 2 kts 83°
2026-04-20 16:55 6.05773 125.09897 514 ft 3 kts 63°
2026-04-20 16:55 6.05762 125.09883 514 ft 3 kts 25°
2026-04-20 16:56 6.05743 125.09878 514 ft 3 kts 359°
2026-04-20 16:56 6.05730 125.09878 514 ft 1 kts 353°
2026-04-20 16:56 6.05727 125.09879 514 ft 0 kts 353°
2026-04-20 16:58 6.05735 125.09878 514 ft 3 kts 353°
2026-04-20 16:58 6.05779 125.09872 514 ft 8 kts 353°
2026-04-20 16:59 6.05839 125.09856 514 ft 8 kts 302°
2026-04-20 16:59 6.05834 125.09794 514 ft 9 kts 262°
2026-04-20 16:59 6.05826 125.09738 514 ft 7 kts 262°
2026-04-20 16:59 6.05820 125.09693 514 ft 6 kts 263°
2026-04-20 17:00 6.05856 125.09613 514 ft 9 kts 352°
2026-04-20 17:00 6.05927 125.09604 514 ft 11 kts 353°
2026-04-20 17:00 6.06020 125.09594 515 ft 16 kts 353°
2026-04-20 17:01 6.06133 125.09580 516 ft 17 kts 353°
2026-04-20 17:01 6.06267 125.09564 516 ft 22 kts 353°
2026-04-20 17:01 6.06433 125.09542 515 ft 26 kts 353°
2026-04-20 17:01 6.06612 125.09520 516 ft 26 kts 353°
2026-04-20 17:02 6.06796 125.09497 514 ft 28 kts 353°
2026-04-20 17:02 6.06979 125.09476 512 ft 20 kts 353°
2026-04-20 17:02 6.07121 125.09459 513 ft 19 kts 353°
2026-04-20 17:02 6.07218 125.09457 512 ft 8 kts 28°
2026-04-20 17:03 6.07242 125.09449 512 ft 6 kts 253°
2026-04-20 17:03 6.07219 125.09444 512 ft 3 kts 171°
2026-04-20 17:03 6.07096 125.09460 513 ft 50 kts 173°
2026-04-20 17:03 6.06521 125.09531 516 ft 115 kts 173°
2026-04-20 17:04 6.05525 125.09652 516 ft 167 kts 173°
2026-04-20 17:04 6.04387 125.09807 996 ft 175 kts 172°
2026-04-20 17:04 6.03180 125.09969 1692 ft 174 kts 171°
2026-04-20 17:04 6.01974 125.10114 2351 ft 177 kts 171°
2026-04-20 17:05 6.00685 125.10270 2657 ft 198 kts 172°
2026-04-20 17:05 5.99238 125.10445 2899 ft 222 kts 171°
2026-04-20 17:05 5.97622 125.10645 3244 ft 245 kts 170°
2026-04-20 17:05 5.95990 125.11287 3620 ft 264 kts 137°
2026-04-20 17:06 5.95002 125.12824 4250 ft 267 kts 101°
2026-04-20 17:06 5.95085 125.14655 5022 ft 267 kts 67°
2026-04-20 17:06 5.96197 125.16120 5755 ft 269 kts 33°
2026-04-20 17:06 5.97963 125.16726 6493 ft 274 kts
2026-04-20 17:07 5.99880 125.16716 7215 ft 278 kts 358°
2026-04-20 17:07 6.01825 125.16645 7970 ft 282 kts 358°
2026-04-20 17:07 6.03778 125.16572 8703 ft 286 kts 357°
2026-04-20 17:07 6.05768 125.16496 9414 ft 291 kts 357°
2026-04-20 17:08 6.07809 125.16542 10090 ft 297 kts
2026-04-20 17:08 6.09905 125.16814 10414 ft 316 kts
2026-04-20 17:08 6.12145 125.17220 10608 ft 337 kts 10°
2026-04-20 17:08 6.14481 125.17686 11100 ft 346 kts 10°
2026-04-20 17:09 6.16823 125.18318 11690 ft 352 kts 20°
2026-04-20 17:09 6.19107 125.19250 12295 ft 357 kts 21°
2026-04-20 17:09 6.21438 125.20165 12896 ft 361 kts 20°
2026-04-20 17:09 6.23802 125.21062 13492 ft 366 kts 19°
2026-04-20 17:10 6.26204 125.21958 14034 ft 370 kts 19°
2026-04-20 17:10 6.28629 125.22861 14544 ft 374 kts 19°
2026-04-20 17:10 6.31079 125.23773 15056 ft 377 kts 19°
2026-04-20 17:10 6.33546 125.24696 15577 ft 380 kts 19°
2026-04-20 17:11 6.36032 125.25632 16103 ft 383 kts 20°
2026-04-20 17:11 6.38540 125.26579 16621 ft 386 kts 19°
2026-04-20 17:11 6.41150 125.27234 17111 ft 389 kts
2026-04-20 17:11 6.43852 125.27247 17598 ft 390 kts 351°
2026-04-20 17:12 6.46484 125.26607 18087 ft 391 kts 337°
2026-04-20 17:12 6.48895 125.25352 18513 ft 391 kts 323°
2026-04-20 17:12 6.51051 125.23671 18929 ft 393 kts 320°
2026-04-20 17:12 6.53193 125.21953 19357 ft 396 kts 320°
2026-04-20 17:13 6.55354 125.20222 19773 ft 398 kts 320°
2026-04-20 17:13 6.57531 125.18482 20176 ft 401 kts 320°
2026-04-20 17:13 6.59729 125.16729 20574 ft 404 kts 320°
2026-04-20 17:13 6.61941 125.14965 20961 ft 407 kts 320°
2026-04-20 17:14 6.64167 125.13190 21347 ft 410 kts 320°
2026-04-20 17:14 6.66411 125.11399 21735 ft 413 kts 321°
2026-04-20 17:14 6.68668 125.09595 22087 ft 416 kts 321°
2026-04-20 17:14 6.70931 125.07763 22449 ft 419 kts 318°
2026-04-20 17:15 6.72826 125.05548 22842 ft 420 kts 303°
2026-04-20 17:15 6.74563 125.03163 23144 ft 424 kts 314°
2026-04-20 17:15 6.76871 125.01316 23480 ft 426 kts 328°
2026-04-20 17:15 6.79444 124.99829 23804 ft 428 kts 332°
2026-04-20 17:16 6.82057 124.98381 24097 ft 430 kts 330°
2026-04-20 17:16 6.84586 124.96837 24410 ft 432 kts 327°
2026-04-20 17:16 6.87067 124.95110 24726 ft 433 kts 324°
2026-04-20 17:16 6.89549 124.93392 25021 ft 435 kts 329°
2026-04-20 17:17 6.92236 124.91986 25309 ft 436 kts 339°
2026-04-20 17:17 6.95144 124.91096 25593 ft 437 kts 348°
2026-04-20 17:17 6.98126 124.90463 25880 ft 440 kts 349°
2026-04-20 17:17 7.01134 124.89859 26153 ft 442 kts 350°
2026-04-20 17:18 7.04156 124.89264 26453 ft 444 kts 350°
2026-04-20 17:18 7.07196 124.88665 26734 ft 446 kts 350°
2026-04-20 17:18 7.10243 124.88053 27007 ft 448 kts 349°
2026-04-20 17:18 7.13305 124.87427 27277 ft 450 kts 349°
2026-04-20 17:19 7.16377 124.86789 27546 ft 452 kts 349°
2026-04-20 17:19 7.19427 124.86151 27805 ft 454 kts 349°
2026-04-20 17:19 7.22563 124.85497 28074 ft 456 kts 349°
2026-04-20 17:19 7.25677 124.84849 28348 ft 458 kts 349°
2026-04-20 17:20 7.28761 124.84211 28604 ft 460 kts 350°
2026-04-20 17:20 7.31908 124.83561 28864 ft 462 kts 350°
2026-04-20 17:20 7.35063 124.82913 29119 ft 464 kts 350°
2026-04-20 17:20 7.38237 124.82258 29381 ft 466 kts 350°
2026-04-20 17:21 7.41417 124.81600 29626 ft 468 kts 350°
2026-04-20 17:21 7.44612 124.80941 29879 ft 470 kts 350°
2026-04-20 17:21 7.47823 124.80280 30095 ft 471 kts 350°
2026-04-20 17:21 7.51034 124.79623 30300 ft 473 kts 350°
2026-04-20 17:22 7.54278 124.78961 30503 ft 475 kts 350°
2026-04-20 17:22 7.57515 124.78298 30717 ft 476 kts 349°
2026-04-20 17:22 7.60767 124.77628 30932 ft 477 kts 349°
2026-04-20 17:22 7.64012 124.76956 31249 ft 475 kts 349°
2026-04-20 17:23 7.67249 124.76286 31586 ft 473 kts 349°
2026-04-20 17:23 7.70471 124.75623 31921 ft 472 kts 349°
2026-04-20 17:23 7.73683 124.74964 32257 ft 470 kts 349°
2026-04-20 17:23 7.76881 124.74303 32584 ft 468 kts 349°
2026-04-20 17:24 7.80069 124.73640 32919 ft 467 kts 348°
2026-04-20 17:24 7.83243 124.72978 33263 ft 465 kts 348°
2026-04-20 17:24 7.86361 124.72330 33637 ft 462 kts 348°
2026-04-20 17:24 7.89504 124.71678 33927 ft 461 kts 348°
2026-04-20 17:25 7.92633 124.71029 33987 ft 454 kts 348°
2026-04-20 17:25 7.98780 124.69751 33985 ft 447 kts 348°
2026-04-20 17:26 8.04873 124.68494 33986 ft 446 kts 348°
2026-04-20 17:26 8.10910 124.67253 33986 ft 445 kts 348°
2026-04-20 17:27 8.17033 124.65988 34108 ft 452 kts 348°
2026-04-20 17:27 8.20118 124.65347 34278 ft 453 kts 348°
2026-04-20 17:27 8.23204 124.64705 34482 ft 454 kts 348°
2026-04-20 17:27 8.26301 124.64065 34678 ft 454 kts 348°
2026-04-20 17:28 8.29398 124.63426 34892 ft 454 kts 348°
2026-04-20 17:28 8.32499 124.62785 35078 ft 455 kts 348°
2026-04-20 17:28 8.35598 124.62141 35284 ft 455 kts 348°
2026-04-20 17:28 8.38701 124.61492 35488 ft 455 kts 347°
2026-04-20 17:29 8.41724 124.60574 35699 ft 454 kts 338°
2026-04-20 17:29 8.44562 124.59187 35870 ft 454 kts 330°
2026-04-20 17:29 8.47276 124.57625 35927 ft 455 kts 330°
2026-04-20 17:30 8.52764 124.54455 35917 ft 454 kts 330°
2026-04-20 17:30 8.58258 124.51279 35913 ft 454 kts 330°
2026-04-20 17:31 8.63740 124.48113 35908 ft 454 kts 330°
2026-04-20 17:31 8.69240 124.44943 35907 ft 455 kts 330°
2026-04-20 17:32 8.74711 124.41793 35905 ft 456 kts 330°
2026-04-20 17:32 8.80265 124.38581 35909 ft 456 kts 329°
2026-04-20 17:33 8.85741 124.35405 35917 ft 456 kts 329°
2026-04-20 17:33 8.91283 124.32201 35917 ft 456 kts 330°
2026-04-20 17:34 8.96771 124.29027 35917 ft 457 kts 329°
2026-04-20 17:34 9.02300 124.25836 35917 ft 457 kts 330°
2026-04-20 17:35 9.07819 124.22639 35920 ft 457 kts 330°
2026-04-20 17:35 9.13333 124.19438 35916 ft 456 kts 329°
2026-04-20 17:36 9.18818 124.16260 35918 ft 457 kts 329°
2026-04-20 17:36 9.24328 124.13060 35913 ft 457 kts 329°
2026-04-20 17:37 9.29841 124.09852 35922 ft 457 kts 329°
2026-04-20 17:37 9.35360 124.06646 35920 ft 457 kts 329°
2026-04-20 17:38 9.40875 124.03448 35925 ft 456 kts 330°
2026-04-20 17:38 9.46396 124.00272 35941 ft 456 kts 329°
2026-04-20 17:39 9.51913 123.97096 35936 ft 455 kts 329°
2026-04-20 17:39 9.57377 123.93925 35934 ft 455 kts 329°
2026-04-20 17:40 9.62857 123.90728 35931 ft 455 kts 329°
2026-04-20 17:40 9.68344 123.87529 35932 ft 455 kts 329°
2026-04-20 17:41 9.72939 123.84858 35931 ft 454 kts 329°
2026-04-20 17:41 9.79317 123.81156 35930 ft 454 kts 329°
2026-04-20 17:42 9.83881 123.78502 35932 ft 454 kts 329°
2026-04-20 17:42 9.89370 123.75303 35933 ft 455 kts 329°
2026-04-20 17:43 9.94858 123.72106 35938 ft 455 kts 329°
2026-04-20 17:43 10.00339 123.68908 35939 ft 455 kts 329°
2026-04-20 17:44 10.05817 123.65702 35933 ft 454 kts 329°
2026-04-20 17:44 10.11302 123.62500 35930 ft 455 kts 328°
2026-04-20 17:45 10.16791 123.59297 35929 ft 455 kts 328°
2026-04-20 17:45 10.22248 123.56116 35929 ft 455 kts 328°
2026-04-20 17:46 10.27736 123.52907 35927 ft 455 kts 328°
2026-04-20 17:46 10.33226 123.49699 35928 ft 455 kts 328°
2026-04-20 17:47 10.38722 123.46490 35938 ft 455 kts 328°
2026-04-20 17:47 10.44207 123.43286 35937 ft 455 kts 328°
2026-04-20 17:48 10.49661 123.40102 35934 ft 455 kts 328°
2026-04-20 17:48 10.55160 123.36892 35939 ft 456 kts 328°
2026-04-20 17:49 10.60662 123.33674 35941 ft 456 kts 328°
2026-04-20 17:49 10.66161 123.30461 35941 ft 455 kts 328°
2026-04-20 17:50 10.71648 123.27252 35940 ft 455 kts 328°
2026-04-20 17:50 10.77140 123.24038 35937 ft 455 kts 328°
2026-04-20 17:51 10.82621 123.20822 35931 ft 455 kts 328°
2026-04-20 17:51 10.88066 123.17630 35926 ft 454 kts 328°
2026-04-20 17:52 10.93548 123.14417 35929 ft 454 kts 328°
2026-04-20 17:52 10.99028 123.11205 35925 ft 454 kts 328°
2026-04-20 17:53 11.04492 123.07997 35919 ft 454 kts 328°
2026-04-20 17:53 11.09967 123.04781 35916 ft 454 kts 328°
2026-04-20 17:54 11.15432 123.01574 35916 ft 453 kts 328°
2026-04-20 17:54 11.20898 122.98356 35915 ft 453 kts 328°
2026-04-20 17:55 11.26325 122.95163 35919 ft 454 kts 328°
2026-04-20 17:55 11.31793 122.91945 35923 ft 454 kts 328°
2026-04-20 17:56 11.37252 122.88732 35929 ft 454 kts 327°
2026-04-20 17:56 11.42718 122.85512 35924 ft 454 kts 327°
2026-04-20 17:57 11.48202 122.82279 35923 ft 455 kts 327°
2026-04-20 17:57 11.53688 122.79045 35926 ft 455 kts 327°
2026-04-20 17:58 11.59169 122.75811 35932 ft 455 kts 327°
2026-04-20 17:58 11.64542 122.72415 35932 ft 454 kts 324°
2026-04-20 17:59 11.69780 122.68809 35927 ft 453 kts 323°
2026-04-20 17:59 11.75010 122.65191 35929 ft 454 kts 323°
2026-04-20 18:00 11.80236 122.61649 35942 ft 454 kts 324°
2026-04-20 18:00 11.85511 122.58117 35929 ft 454 kts 324°
2026-04-20 18:01 11.90787 122.54566 35930 ft 454 kts 323°
2026-04-20 18:01 11.96061 122.51005 35930 ft 454 kts 323°
2026-04-20 18:02 12.01334 122.47444 35932 ft 454 kts 323°
2026-04-20 18:02 12.06611 122.43885 35932 ft 454 kts 323°
2026-04-20 18:03 12.11898 122.40316 35931 ft 455 kts 323°
2026-04-20 18:03 12.17137 122.36778 35932 ft 455 kts 323°
2026-04-20 18:04 12.22411 122.33207 35934 ft 455 kts 323°
2026-04-20 18:04 12.27690 122.29639 35934 ft 455 kts 323°
2026-04-20 18:05 12.35617 122.24278 35933 ft 455 kts 323°
2026-04-20 18:05 12.40889 122.20670 35938 ft 455 kts 322°
2026-04-20 18:06 12.46123 122.17026 35936 ft 455 kts 322°
2026-04-20 18:06 12.51322 122.13400 35938 ft 455 kts 322°
2026-04-20 18:07 12.56562 122.09748 35939 ft 455 kts 322°
2026-04-20 18:07 12.61801 122.06107 35940 ft 455 kts 322°
2026-04-20 18:08 12.67043 122.02464 35938 ft 455 kts 322°
2026-04-20 18:08 12.72276 121.98825 35938 ft 455 kts 322°
2026-04-20 18:09 12.77512 121.95180 35944 ft 455 kts 322°
2026-04-20 18:09 12.82738 121.91536 35946 ft 454 kts 322°
2026-04-20 18:10 12.87971 121.87889 35947 ft 454 kts 322°
2026-04-20 18:10 12.93186 121.84251 35946 ft 454 kts 322°
2026-04-20 18:11 12.98400 121.80610 35918 ft 453 kts 322°
2026-04-20 18:11 13.01003 121.78794 35386 ft 452 kts 322°
2026-04-20 18:11 13.03562 121.77009 34870 ft 450 kts 322°
2026-04-20 18:12 13.06149 121.75201 34359 ft 448 kts 322°
2026-04-20 18:12 13.08719 121.73406 33875 ft 446 kts 322°
2026-04-20 18:12 13.11279 121.71619 33328 ft 443 kts 322°
2026-04-20 18:12 13.13819 121.69844 32838 ft 440 kts 322°
2026-04-20 18:13 13.16335 121.68085 32353 ft 436 kts 322°
2026-04-20 18:13 13.18838 121.66335 31907 ft 433 kts 322°
2026-04-20 18:13 13.21314 121.64604 31467 ft 429 kts 322°
2026-04-20 18:13 13.23774 121.62881 31024 ft 426 kts 323°
2026-04-20 18:14 13.26208 121.61178 30588 ft 422 kts 323°
2026-04-20 18:14 13.28629 121.59483 30163 ft 419 kts 323°
2026-04-20 18:14 13.31029 121.57801 29668 ft 416 kts 323°
2026-04-20 18:14 13.33409 121.56135 29174 ft 412 kts 323°
2026-04-20 18:15 13.35734 121.54507 28694 ft 409 kts 323°
2026-04-20 18:15 13.38085 121.52860 28205 ft 406 kts 323°
2026-04-20 18:15 13.40409 121.51229 27740 ft 403 kts 323°
2026-04-20 18:15 13.42718 121.49607 27270 ft 401 kts 323°
2026-04-20 18:16 13.45009 121.47999 26809 ft 398 kts 323°
2026-04-20 18:16 13.47258 121.46422 26365 ft 395 kts 324°
2026-04-20 18:16 13.49519 121.44838 25925 ft 392 kts 324°
2026-04-20 18:16 13.51763 121.43266 25493 ft 390 kts 324°
2026-04-20 18:17 13.53993 121.41702 25068 ft 387 kts 324°
2026-04-20 18:17 13.56212 121.40145 24702 ft 383 kts 324°
2026-04-20 18:17 13.58391 121.38604 24354 ft 379 kts 323°
2026-04-20 18:17 13.60530 121.37037 23971 ft 375 kts 323°
2026-04-20 18:18 13.62633 121.35463 23583 ft 373 kts 322°
2026-04-20 18:18 13.64723 121.33887 23134 ft 371 kts 322°
2026-04-20 18:18 13.66793 121.32325 22714 ft 368 kts 322°
2026-04-20 18:18 13.68854 121.30775 22287 ft 366 kts 323°
2026-04-20 18:19 13.70907 121.29236 21886 ft 363 kts 323°
2026-04-20 18:19 13.72946 121.27711 21481 ft 361 kts 323°
2026-04-20 18:19 13.74973 121.26199 21082 ft 359 kts 323°
2026-04-20 18:19 13.76993 121.24692 20682 ft 357 kts 323°
2026-04-20 18:20 13.78997 121.23199 20320 ft 354 kts 323°
2026-04-20 18:20 13.80986 121.21718 19958 ft 351 kts 323°
2026-04-20 18:20 13.82959 121.20249 19600 ft 349 kts 323°
2026-04-20 18:20 13.84922 121.18788 19246 ft 347 kts 323°
2026-04-20 18:21 13.86863 121.17340 18901 ft 345 kts 323°
2026-04-20 18:21 13.88784 121.15903 18560 ft 343 kts 323°
2026-04-20 18:21 13.90712 121.14461 18224 ft 342 kts 323°
2026-04-20 18:21 13.92623 121.13032 17843 ft 340 kts 323°
2026-04-20 18:22 13.94528 121.11608 17474 ft 338 kts 323°
2026-04-20 18:22 13.96425 121.10189 17121 ft 336 kts 324°
2026-04-20 18:22 13.98303 121.08783 16797 ft 333 kts 324°
2026-04-20 18:22 14.00172 121.07385 16461 ft 331 kts 324°
2026-04-20 18:23 14.02026 121.05998 16133 ft 329 kts 324°
2026-04-20 18:23 14.03871 121.04617 15810 ft 327 kts 324°
2026-04-20 18:23 14.05704 121.03246 15491 ft 325 kts 324°
2026-04-20 18:23 14.07530 121.01883 15180 ft 323 kts 324°
2026-04-20 18:24 14.09346 121.00527 14878 ft 321 kts 324°
2026-04-20 18:24 14.11150 120.99177 14576 ft 319 kts 324°
2026-04-20 18:24 14.12938 120.97838 14295 ft 316 kts 326°
2026-04-20 18:24 14.14694 120.96522 14162 ft 309 kts 326°
2026-04-20 18:25 14.16410 120.95234 14031 ft 301 kts 325°
2026-04-20 18:25 14.18132 120.94076 13924 ft 292 kts 332°
2026-04-20 18:25 14.19864 120.93055 13716 ft 288 kts 332°
2026-04-20 18:25 14.21621 120.92019 13428 ft 287 kts 332°
2026-04-20 18:26 14.23326 120.91015 13137 ft 286 kts 332°
2026-04-20 18:26 14.25031 120.89960 12826 ft 286 kts 323°
2026-04-20 18:26 14.26231 120.88330 12534 ft 286 kts 290°
2026-04-20 18:26 14.26379 120.86331 12201 ft 287 kts 256°
2026-04-20 18:27 14.25651 120.84419 11853 ft 288 kts 242°
2026-04-20 18:27 14.24704 120.82701 11537 ft 288 kts 237°
2026-04-20 18:27 14.23628 120.80863 11211 ft 288 kts 239°
2026-04-20 18:27 14.22647 120.79067 10911 ft 287 kts 240°
2026-04-20 18:28 14.21677 120.77273 10610 ft 286 kts 240°
2026-04-20 18:28 14.20713 120.75480 10314 ft 285 kts 240°
2026-04-20 18:28 14.19757 120.73696 10020 ft 284 kts 240°
2026-04-20 18:28 14.18820 120.71936 9838 ft 278 kts 240°
2026-04-20 18:29 14.17887 120.70184 9469 ft 279 kts 240°
2026-04-20 18:29 14.16967 120.68451 9294 ft 272 kts 240°
2026-04-20 18:29 14.16365 120.67319 9126 ft 270 kts 240°
2026-04-20 18:29 14.15466 120.65627 8822 ft 268 kts 240°
2026-04-20 18:30 14.14645 120.63905 8502 ft 268 kts 252°
2026-04-20 18:30 14.14444 120.62041 8333 ft 259 kts 277°
2026-04-20 18:30 14.14964 120.60305 8074 ft 252 kts 302°
2026-04-20 18:30 14.16089 120.58959 7764 ft 246 kts 326°
2026-04-20 18:31 14.17588 120.58183 7468 ft 240 kts 349°
2026-04-20 18:31 14.19229 120.58051 7152 ft 235 kts 11°
2026-04-20 18:31 14.21207 120.58828 6843 ft 230 kts 38°
2026-04-20 18:31 14.22009 120.59517 6704 ft 228 kts 44°
2026-04-20 18:32 14.23178 120.60586 6466 ft 228 kts 44°
2026-04-20 18:32 14.24384 120.61687 6218 ft 228 kts 43°
2026-04-20 18:32 14.25552 120.62749 6041 ft 226 kts 43°
2026-04-20 18:32 14.26749 120.63838 5993 ft 227 kts 43°
2026-04-20 18:33 14.27922 120.64908 5983 ft 228 kts 43°
2026-04-20 18:33 14.29107 120.65988 5995 ft 228 kts 43°
2026-04-20 18:33 14.30295 120.67072 5999 ft 228 kts 43°
2026-04-20 18:33 14.31478 120.68151 5995 ft 227 kts 43°
2026-04-20 18:34 14.32618 120.69275 5994 ft 226 kts 52°
2026-04-20 18:34 14.33458 120.70637 5997 ft 225 kts 62°
2026-04-20 18:34 14.34235 120.72040 5995 ft 225 kts 61°
2026-04-20 18:34 14.35018 120.73455 5802 ft 228 kts 61°
2026-04-20 18:35 14.35803 120.74868 5493 ft 226 kts 61°
2026-04-20 18:35 14.36584 120.76275 5198 ft 225 kts 61°
2026-04-20 18:35 14.37356 120.77667 4897 ft 224 kts 61°
2026-04-20 18:35 14.38122 120.79049 4602 ft 225 kts 61°
2026-04-20 18:36 14.38912 120.80470 4286 ft 225 kts 62°
2026-04-20 18:36 14.39691 120.81872 3984 ft 225 kts 61°
2026-04-20 18:36 14.40470 120.83275 3686 ft 225 kts 62°
2026-04-20 18:36 14.41233 120.84644 3384 ft 214 kts 61°
2026-04-20 18:37 14.41942 120.85918 3112 ft 201 kts 62°
2026-04-20 18:37 14.42611 120.87118 2869 ft 184 kts 62°
2026-04-20 18:37 14.43226 120.88219 2635 ft 169 kts 62°
2026-04-20 18:37 14.43784 120.89225 2409 ft 153 kts 60°
2026-04-20 18:38 14.44301 120.90158 2195 ft 146 kts 60°
2026-04-20 18:38 14.44800 120.91057 2001 ft 143 kts 60°
2026-04-20 18:38 14.45295 120.91945 1817 ft 143 kts 61°
2026-04-20 18:38 14.45787 120.92831 1632 ft 142 kts 61°
2026-04-20 18:39 14.46277 120.93712 1427 ft 142 kts 61°
2026-04-20 18:39 14.46767 120.94593 1255 ft 141 kts 61°
2026-04-20 18:39 14.47256 120.95474 1066 ft 141 kts 60°
2026-04-20 18:39 14.47745 120.96352 881 ft 141 kts 60°
2026-04-20 18:40 14.48237 120.97234 697 ft 142 kts 60°
2026-04-20 18:40 14.48734 120.98109 560 ft 141 kts 59°
2026-04-20 18:40 14.49222 120.98990 355 ft 141 kts 59°
2026-04-20 18:40 14.49711 120.99869 174 ft 140 kts 59°
2026-04-20 18:41 14.50186 121.00727 65 ft 132 kts 59°
2026-04-20 18:41 14.50568 121.01413 65 ft 82 kts 60°
2026-04-20 18:41 14.50742 121.01711 62 ft 23 kts 37°
2026-04-20 18:41 14.50834 121.01770 63 ft 15 kts 41°
2026-04-20 18:42 14.50913 121.01761 64 ft 13 kts 316°
2026-04-20 18:42 14.50975 121.01698 62 ft 12 kts 315°
2026-04-20 18:42 14.51036 121.01635 62 ft 12 kts 314°
2026-04-20 18:42 14.51099 121.01571 63 ft 13 kts 315°
2026-04-20 18:43 14.51165 121.01503 63 ft 14 kts 315°
2026-04-20 18:43 14.51233 121.01433 66 ft 13 kts 315°
2026-04-20 18:43 14.51301 121.01450 61 ft 12 kts 44°
2026-04-20 18:43 14.51353 121.01507 61 ft 10 kts 50°
2026-04-20 18:44 14.51394 121.01557 64 ft 8 kts 46°
2026-04-20 18:44 14.51431 121.01591 66 ft 6 kts 38°
2026-04-20 18:44 14.51462 121.01616 69 ft 5 kts 38°
2026-04-20 18:44 14.51489 121.01638 62 ft 6 kts 42°
2026-04-20 18:45 14.51515 121.01664 62 ft 5 kts 45°
2026-04-20 18:45 14.51543 121.01694 61 ft 7 kts 45°
2026-04-20 18:45 14.51581 121.01733 60 ft 7 kts 45°
2026-04-20 18:45 14.51615 121.01767 65 ft 7 kts 43°
2026-04-20 18:46 14.51675 121.01789 60 ft 11 kts 350°
2026-04-20 18:46 14.51724 121.01749 65 ft 7 kts 315°
2026-04-20 18:46 14.51756 121.01717 61 ft 6 kts 315°
2026-04-20 18:46 14.51777 121.01686 66 ft 6 kts 281°
2026-04-20 18:47 14.51756 121.01658 62 ft 4 kts 223°
2026-04-20 18:47 14.51742 121.01644 66 ft 2 kts 225°
2026-04-20 18:47 14.51736 121.01638 67 ft 1 kts 226°
2026-04-20 18:47 14.51732 121.01633 64 ft 1 kts 226°
2026-04-20 18:48 14.51731 121.01632 59 ft 0 kts 226°